This demonstration page uses our WeatherBlox Daily Observations layout. Learn more.

Left ArrowRight Arrow

31.84235, -102.49876

Hourly Observations for August 19, 2022

Temp ( °F °C ) Dew Point ( °F °C ) Humidity (%) Winds ( mph kmh ) Pressure ( in mb ) Visibility ( mi km ) Precip ( " mm )
12:53 am 00:53 Mostly Cloudy 77 25 64 17.8 64 64 E 10 17 29.94 1014 10 16 0.00 0.00
1:53 am 01:53 Clear 76 24.4 64 17.8 67 67 ESE 10 17 29.93 1014 10 16 0.00 0.00
2:53 am 02:53 Clear 75 23.9 64 17.8 69 69 ESE 8 13 29.91 1013 10 16 0.00 0.00
3:53 am 03:53 Clear 73 22.8 64 17.8 73 73 SE 6 9 29.90 1013 10 16 0.00 0.00
4:53 am 04:53 Clear 72 22.2 64 17.8 76 76 SSE 6 9 29.90 1012 10 16 0.00 0.00
5:53 am 05:53 Clear 71 21.7 64 17.8 79 79 SE 3 6 29.90 1013 10 16 0.00 0.00
6:53 am 06:53 Clear 71 21.7 64 17.8 79 79 SSE 3 6 29.91 1013 10 16 0.00 0.00
7:53 am 07:53 Mostly Cloudy 72 22.2 65 18.3 79 79 SSE 3 6 29.92 1013 10 16 0.00 0.00
8:53 am 08:53 Mostly Cloudy 74 23.3 65 18.3 74 74 SSE 7 11 29.92 1013 10 16 0.00 0.00
9:53 am 09:53 Mostly Sunny 76 24.4 66 18.9 71 71 S 7 11 29.93 1014 10 16 0.00 0.00
10:53 am 10:53 Sunny 79 26.1 66 18.9 65 65 Calm 29.92 1013 10 16 0.00 0.00
11:53 am 11:53 Sunny 83 28.3 66 18.9 57 57 VRB 5 7 29.90 1013 10 16 0.00 0.00
12:53 pm 12:53 Mostly Sunny 85 29.4 66 18.9 53 53 Calm 29.88 1012 10 16 0.00 0.00
1:53 pm 13:53 Sunny 88 31.1 64 17.8 45 45 VRB 3 6 29.83 1010 10 16 0.00 0.00
2:53 pm 14:53 Cloudy 89 31.7 62 16.7 41 41 S 6 9 29.81 1010 10 16 0.00 0.00
3:53 pm 15:53 Mostly Cloudy 91 32.8 62 16.7 38 38 VRB 7 11 29.80 1009 10 16 0.00 0.00
4:53 pm 16:53 Partly Cloudy 90 32.2 61 16.1 38 38 SE 9 15 29.77 1008 10 16 0.00 0.00
5:53 pm 17:53 Mostly Cloudy with Light Rain 80 26.7 66 18.9 62 62 SE 18 30 29.80 1009 10 16 0.01 0.13
6:05 pm 18:05 Cloudy with Nearby Thunderstorms 79 26.1 66 18.9 65 65 SE 23 37 29.77 1008 10 16 0.01 0.13
6:20 pm 18:20 Cloudy 78 25.6 64 17.8 62 62 SSE 22 35 29.78 1009 10 16 0.01 0.13
6:25 pm 18:25 Cloudy with Thunderstorms 77 25 65 18.3 66 66 S 18 30 29.79 1009 10 16 0.01 0.13
6:42 pm 18:42 Cloudy with Strong Thunderstorms 74 23.3 68 20 82 82 SSE 15 24 29.83 1010 2 3 0.13 3.30
6:48 pm 18:48 Cloudy with Strong Thunderstorms 73 23 68 20 83 83 SSE 9 15 29.84 1011 1 1 0.31 7.87
6:53 pm 18:53 Cloudy with Nearby Thunderstorms 73 22.8 68 20 84 84 S 8 13 29.86 1011 1 1 0.43 10.92
7:14 pm 19:14 Cloudy with Strong Thunderstorms 72 22.2 67 19.4 84 84 SE 8 13 29.84 1010 1 1 0.39 9.91
7:21 pm 19:21 Cloudy with Strong Thunderstorms 73 22.8 67 19.4 81 81 SSE 7 11 29.83 1010 1 2 0.46 11.68
7:35 pm 19:35 Cloudy with Rain 73 22.8 67 19.4 81 81 S 3 6 29.83 1010 2 3 0.53 13.46
7:44 pm 19:44 Mostly Cloudy with Light Rain 74 23.3 67 19.4 79 79 SSE 6 9 29.82 1010 5 8 0.54 13.72
7:53 pm 19:53 Mostly Cloudy with Light Rain 74 23.3 67 19.4 79 79 SSE 6 9 29.85 1011 6 10 0.54 13.72
8:53 pm 20:53 Mostly Cloudy with Light Rain 75 23.9 69 20.6 82 82 SE 7 11 29.85 1011 10 16 0.02 0.51
9:53 pm 21:53 Mostly Cloudy with Light Rain 75 23.9 69 20.6 82 82 S 6 9 29.87 1012 10 16 0.01 0.13
10:53 pm 22:53 Mostly Clear 76 24.4 67 19.4 74 74 S 5 7 29.88 1012 10 16 0.01 0.13
11:53 pm 23:53 Clear 76 24.4 67 19.4 74 74 ESE 6 9 29.86 1011 10 16 0.00 0.00

Powered by AerisWeather